Simultaneous Nadir Overpasses (SNOs) Predictions

Prediction of SNOs between GOES-16 and NOAA-19 Satellite Orbit:

Table of predicted SNOs for the next 14.0 days since TLE Epoch: 9/25/2021
Index Date Time (GOES-16) GOES-16 Lat,Lon NOAA-19 Lat,Lon Distance(km) Time Diff (sec)
1 09/25/2021 23:53:57 -0.02, -75.18 0.76, -71.79 387.25 80
2 09/27/2021 12:29:08 0.04, -75.21 1.07, -79.57 498.20 80
3 09/28/2021 12:17:23 0.04, -75.21 0.37, -76.70 170.08 80
4 09/29/2021 12:02:56 0.04, -75.21 -0.26, -73.82 158.13 80
5 09/30/2021 11:51:11 0.03, -75.22 -0.96, -70.96 486.40 80
6 10/02/2021 00:26:26 -0.06, -75.20 -0.90, -78.75 405.31 80
7 10/03/2021 00:14:41 -0.05, -75.21 -0.22, -75.88 76.84 80
8 10/04/2021 00:00:15 -0.04, -75.22 0.45, -73.01 251.82 80
9 10/06/2021 12:23:39 0.06, -75.27 0.67, -77.92 302.07 80
10 10/07/2021 12:09:13 0.06, -75.28 0.03, -75.04 27.31 80
11 10/08/2021 11:57:27 0.05, -75.29 -0.67, -72.17 356.47 80
